Temp
23 23 23 24 24 24 24 24 24 24 24 25 25 24 24 24 24 24 24 24 24 24 24 23 23 24 23 23 23 23 23 23 23 23 23 23 23 23 23 23 23 23
23 24 24 24 24 24 24 24 24 24 24 24 24 24 24 24 24 24 24 24 24 24 23 23 24 23 23 23 23 23 23 23 23 23 23 23 23 23 23 23 23 23
24 24 24 24 24 24 24 24 24 24 24 24 24 24 24 24 24 24 24 24 24 23 23 23 23 23 23 23 23 23 23 22 22 22 22 22 22 22 23 23 23 23
24 24 24 24 23 24 24 24 24 24 24 24 24 24 24 24 24 24 24 23 23 23 23 23 23 23 23 23 22 22 22 22 22 22 22 22 22 22 22 22 22 22
24 23 23 23 23 24 24 24 24 24 24 24 24 24 24 24 24 23 23 23 23 23 23 23 23 23 22 22 22 22 22 22 22 22 22 22 22 22 22 22 22 22
23 23 23 23 23 23 23 24 24 24 24 24 24 24 24 24 24 23 23 23 23 23 23 23 22 22 22 22 22 22 22 22 22 21 21 21 21 21 21 21 21 21
24 23 23 23 23 23 23 23 24 24 24 24 24 24 24 24 23 23 23 23 22 23 23 23 22 22 22 22 22 22 22 22 21 21 21 21 21 21 21 21 21 21
24 23 23 23 23 23 23 23 24 24 24 24 24 24 23 23 23 23 23 23 22 22 22 22 22 22 22 22 22 22 22 22 21 21 21 21 21 21 21 21 21 21
23 23 23 23 23 23 23 23 23 23 23 23 23 23 23 23 22 22 22 22 22 22 22 22 22 22 22 22 22 22 22 22 21 21 21 21 21 21 21 20 20 20
23 23 23 23 23 23 23 23 23 23 23 23 23 23 23 22 22 22 22 22 22 22 22 22 22 22 21 21 21 21 21 21 21 21 21 21 21 21 21 20 20 20
24 23 23 23 23 23 23 23 23 23 23 23 23 23 22 22 22 22 22 22 22 22 22 22 21 21 21 21 21 21 21 21 21 21 21 21 21 21 21 20 20 20
23 23 23 23 23 23 23 23 23 22 22 22 22 22 22 22 22 22 21 21 21 21 21 21 21 21 21 21 21 21 21 21 21 21 21 21 21 21 21 20 20 20
23 23 23 23 23 23 23 23 23 22 22 22 22 22 21 21 21 21 21 21 21 21 21 21 21 21 21 21 21 21 21 21 21 21 21 21 21 21 21 20 20 20
24 23 23 23 23 23 23 23 23 22 22 22 22 21 21 21 21 21 21 21 21 21 21 21 21 21 21 21 21 21 21 21 21 21 21 21 21 21 20 20 20 20
24 23 23 23 23 23 23 23 22 22 22 22 22 21 21 21 21 21 21 21 21 21 21 21 21 21 21 21 21 20 20 20 21 21 21 21 21 21 20 20 20 20
24 23 23 23 23 23 22 22 22 22 22 22 21 21 21 21 21 21 21 21 21 21 21 21 21 21 21 20 20 20 20 20 20 20 20 20 20 20 20 20 20 20
24 23 23 23 23 23 22 22 22 22 22 22 21 21 21 21 21 21 20 20 20 20 20 20 20 20 20 20 20 20 20 20 20 20 20 20 20 20 19 19 19 19
23 23 23 23 23 22 22 22 22 22 22 21 21 21 21 21 20 20 20 20 20 20 20 20 20 20 19 19 20 20 19 19 19 19 19 19 19 19 19 19 19 19
23 23 23 23 23 22 22 22 22 22 21 21 21 21 20 20 20 20 20 20 20 20 20 20 20 19 19 19 19 19 19 19 19 19 19 19 19 19 19 19 19 19
23 23 23 23 23 22 22 22 21 21 21 21 21 20 20 20 20 20 20 20 20 20 19 19 19 19 19 19 19 19 19 19 19 19 18 18 18 18 18 18 18 18
23 23 23 22 22 22 22 22 21 21 21 20 20 20 20 20 20 20 20 20 20 20 19 19 19 19 19 19 19 18 18 18 18 18 18 18 18 18 18 18 18 17
22 23 23 22 21 21 21 21 21 21 20 20 20 20 20 20 20 20 20 20 19 19 19 19 19 19 19 19 18 18 18 18 18 18 17 17 17 17 17 17 17 17
20 21 21 21 21 21 21 21 21 20 20 20 20 20 20 20 20 20 20 19 19 19 19 19 19 19 18 18 18 18 18 18 17 17 17 17 17 17 17 16 16 16
20 19 20 21 21 21 21 21 20 20 20 20 20 20 20 20 20 20 20 19 19 19 19 19 19 18 18 18 18 18 18 17 17 17 17 17 16 16 16 16 16 16
20 20 20 21 21 21 21 20 20 20 20 20 20 20 20 20 20 20 20 19 19 19 19 18 18 18 18 18 18 18 18 17 17 17 17 16 16 16 16 16 16 16
20 20 21 21 21 21 21 20 21 21 21 21 21 20 20 20 20 20 19 19 19 19 18 18 18 18 18 18 18 18 17 17 17 17 17 17 16 16 16 16 16 16
Height
807 808 809 809 810 810 810 810 810 810 811 810 810 809 809 809 809 809 809 809 809 809 808 808 807 807 807 807 807 807 806 806 806 805 804 804 804 803 803 802 802 801
808 809 809 810 810 810 810 811 811 811 811 810 809 809 810 810 810 810 809 809 809 809 808 808 807 807 807 807 806 806 806 806 805 805 804 803 803 802 802 801 801 800
808 809 809 810 810 810 811 811 811 811 811 810 810 810 810 810 810 810 809 809 808 808 808 807 807 807 807 807 806 806 805 805 804 804 803 803 802 802 801 800 800 799
809 809 809 810 810 810 811 811 811 810 810 810 810 810 810 810 810 809 809 809 808 808 808 808 808 807 807 807 806 806 805 804 804 803 802 802 801 800 800 799 798 797
809 809 809 810 810 810 811 810 811 810 810 810 810 810 810 810 809 809 809 808 808 808 808 808 808 807 807 806 805 805 804 804 803 802 801 800 800 799 798 798 797 796
808 809 809 810 810 810 811 810 811 811 810 810 810 810 810 809 809 809 808 808 808 808 808 808 808 807 806 806 805 804 804 803 802 801 800 799 799 798 797 797 796 795
808 809 809 810 810 810 811 810 811 810 810 811 810 810 809 808 808 808 808 808 808 808 808 807 807 806 805 805 804 804 803 802 801 800 800 799 798 797 796 796 795 793
808 809 809 810 810 810 811 811 811 811 810 811 810 810 809 808 808 808 808 808 807 807 807 806 806 805 804 804 803 803 802 801 801 800 799 798 797 796 795 795 794 793
807 808 808 809 809 810 810 810 810 810 810 810 810 809 809 809 808 808 808 807 807 807 806 805 805 804 804 803 803 802 801 800 800 799 798 797 796 795 794 794 793 792
807 807 808 809 809 809 810 810 810 810 810 809 809 809 809 809 808 808 807 807 806 806 805 805 804 803 803 803 802 801 800 799 799 798 797 796 795 794 794 793 792 791
806 807 808 808 809 809 809 809 809 809 809 809 808 808 808 808 808 807 807 806 805 805 804 804 803 803 802 802 801 800 799 798 797 796 795 794 793 793 792 792 791 790
806 806 807 808 808 808 808 808 808 808 808 808 808 807 807 807 807 806 806 805 805 804 804 803 802 802 801 800 800 799 798 797 796 795 794 793 792 791 791 790 789 788
804 805 806 806 807 807 808 808 808 808 807 807 807 806 806 806 806 805 805 805 804 803 803 802 801 801 800 799 799 798 797 796 794 793 792 791 791 790 789 789 788 787
803 804 805 805 806 806 807 807 807 807 806 806 806 806 805 805 805 805 804 804 803 803 802 801 800 800 799 798 797 796 795 794 793 792 791 790 789 788 788 787 786 786
801 803 803 804 805 805 805 806 805 806 805 805 805 805 805 805 804 804 803 803 802 802 801 800 799 798 797 796 796 795 794 793 792 791 789 788 787 787 786 786 785 784
800 801 802 802 803 804 804 804 804 805 804 805 805 804 804 804 804 803 803 802 801 800 800 799 798 797 796 795 794 793 792 791 790 789 788 787 786 785 785 784 783 783
798 799 800 801 802 803 803 803 804 804 803 804 804 803 803 803 803 802 802 801 800 799 799 798 797 796 795 794 793 792 791 790 789 788 787 786 785 784 783 782 781 780
797 798 799 800 801 802 802 802 803 803 803 803 803 803 803 802 802 802 801 801 800 798 798 797 796 795 794 793 792 790 790 789 788 787 786 785 784 782 781 780 779 778
797 797 798 799 800 800 801 801 802 802 802 802 802 802 802 802 802 801 800 800 799 798 797 796 795 794 793 792 790 789 788 787 786 786 784 783 782 781 780 778 777 776
796 797 797 798 799 800 800 800 801 801 801 801 801 801 801 801 801 800 800 799 798 797 796 795 794 793 792 790 789 788 787 786 785 784 783 782 781 779 778 776 775 774
795 796 797 798 799 799 799 799 800 800 800 800 800 801 801 800 800 800 799 798 797 796 795 794 793 792 790 789 788 786 785 784 783 782 781 780 779 777 776 775 773 772
795 796 796 797 799 799 798 798 799 799 799 799 799 800 800 799 799 799 798 797 796 795 794 793 792 790 789 788 786 785 784 783 782 781 780 778 777 776 774 773 772 770
798 800 798 797 798 798 797 797 798 798 798 798 798 799 798 798 798 797 797 796 795 794 793 791 790 789 788 786 785 784 783 782 781 779 778 777 775 774 772 771 769 768
797 801 800 798 797 797 797 797 797 797 797 797 797 797 797 797 797 796 796 795 794 793 791 790 789 788 787 785 784 783 782 780 779 778 776 775 773 772 770 768 767 766
794 798 798 796 796 796 796 797 796 796 796 796 796 796 796 796 796 795 795 794 793 792 790 789 788 786 785 784 782 781 780 778 777 776 774 773 771 769 768 766 764 763
793 796 796 795 795 795 795 796 795 795 795 795 795 795 795 795 795 794 794 793 792 790 789 788 786 785 784 782 781 780 778 777 776 774 772 771 769 767 765 763 762 760
Wind_Speed
6 6 6 5 5 4 4 3 2 2 1 1 4 6 4 6 7 9 9 8 7 4 3 2 2 2 2 2 2 2 3 3 4 5 6 7 8 8 7 8 8 9
7 7 5 3 4 4 3 2 1 3 2 4 5 6 9 8 7 6 5 3 2 2 2 2 2 2 2 3 3 4 4 4 5 5 6 6 7 7 7 8 8 8
8 7 5 4 5 4 3 2 2 2 1 4 4 8 9 6 4 2 2 1 1 3 2 2 3 3 4 4 5 5 5 5 4 5 6 7 7 7 8 9 9 9
8 7 6 6 5 4 3 3 1 2 2 2 6 8 6 3 3 2 3 4 4 2 0 2 3 4 5 4 4 4 4 5 5 6 7 8 8 7 8 8 9 9
9 8 6 6 5 4 2 1 1 2 1 5 6 4 3 3 2 2 2 2 1 1 2 3 4 4 3 2 3 4 6 7 7 7 8 9 9 8 8 9 9 9
9 8 6 4 3 3 2 1 4 4 2 7 5 2 2 2 1 2 2 1 2 1 2 3 4 3 3 3 5 7 9 9 8 8 9 10 10 10 10 10 11 11
8 6 6 4 2 2 0 3 5 3 4 6 2 0 1 2 2 2 2 2 2 1 3 4 5 5 5 5 7 8 9 9 9 9 10 12 13 12 12 12 12 12
8 7 6 4 3 2 1 2 3 2 2 1 1 2 2 2 2 2 2 2 4 5 5 5 6 6 6 7 9 9 9 9 10 10 11 12 13 12 12 11 10 10
9 8 6 5 2 2 2 1 3 2 1 1 2 2 2 2 2 3 5 7 8 7 7 7 7 6 7 8 10 11 11 11 11 11 12 13 12 11 10 9 8 9
10 7 6 5 2 0 1 2 4 2 2 3 3 2 3 4 5 7 8 10 10 9 8 8 9 10 9 9 11 12 13 13 13 14 14 15 15 12 10 10 10 11
8 7 6 4 2 1 3 3 3 3 4 5 5 6 7 8 9 10 11 11 11 10 10 10 11 11 12 13 13 14 13 14 14 15 15 16 17 15 12 11 12 13
6 7 5 3 2 3 3 3 3 5 6 7 8 9 10 10 11 11 11 11 11 11 12 12 13 13 14 14 15 15 15 14 15 14 14 15 16 15 15 14 14 14
6 6 4 3 3 4 4 4 6 7 8 8 9 9 10 11 12 12 12 12 13 13 14 14 14 14 14 14 15 16 15 15 16 16 15 14 14 15 15 15 14 14
7 6 4 4 4 5 5 7 8 9 9 9 9 10 11 12 12 13 13 13 14 14 15 15 15 15 15 16 17 16 16 17 18 18 17 16 14 14 14 14 14 14
8 7 6 5 5 6 6 8 9 9 9 9 10 11 11 11 12 13 12 13 13 14 14 15 15 15 15 16 16 15 14 15 16 16 16 16 14 13 14 14 14 15
10 9 8 7 6 7 7 8 8 8 8 9 10 10 10 10 10 11 11 13 14 14 14 14 14 14 14 13 12 11 10 11 12 12 13 13 14 14 14 14 14 15
13 11 9 7 7 7 7 7 8 8 9 9 10 10 10 10 11 12 13 13 14 14 14 13 14 13 11 10 11 11 12 13 12 12 11 11 12 13 14 14 15 15
13 12 9 7 7 7 6 7 7 8 9 9 9 10 10 11 12 12 12 12 12 13 12 12 12 11 10 12 13 14 14 14 14 13 12 12 12 13 14 15 16 17
13 12 9 8 7 7 6 6 7 7 7 7 8 9 10 10 10 10 11 11 10 10 11 11 12 12 13 14 15 14 14 13 13 13 12 12 13 13 14 16 17 18
12 11 10 9 7 6 5 6 6 5 5 6 6 6 7 8 9 10 10 9 10 11 12 13 13 13 13 13 13 14 14 14 13 13 13 13 12 13 14 15 17 19
13 10 9 8 5 4 4 3 2 3 4 4 4 5 7 8 9 10 10 10 11 12 13 13 13 13 12 13 13 14 15 14 14 13 13 13 13 14 15 16 17 18
10 10 9 7 4 4 3 1 2 3 4 4 5 7 8 9 10 10 10 11 11 12 12 13 13 12 12 13 13 13 13 14 14 13 14 15 15 16 16 16 16 16
6 8 7 5 4 3 1 1 3 4 4 5 7 8 9 10 11 10 10 11 12 12 12 13 14 13 12 11 10 11 12 12 11 12 13 14 15 15 15 15 15 15
7 9 7 4 3 2 2 3 3 4 5 7 9 10 11 12 12 11 11 11 12 12 13 13 13 11 10 9 9 10 12 11 10 12 13 14 14 14 15 15 15 16
8 9 5 3 2 1 3 3 4 5 7 8 10 11 12 14 14 12 12 11 11 12 12 11 11 11 11 11 11 12 13 11 10 11 13 14 15 16 17 17 17 18
7 6 3 1 1 3 4 4 5 6 6 8 10 11 13 14 14 13 13 12 11 10 9 10 12 14 14 12 13 14 12 10 10 11 12 13 15 17 18 19 19 20
Wind_Direction
168 161 147 139 141 142 150 151 139 147 159 330 358 26 85 131 131 132 132 130 133 133 125 99 48 9 329 317 316 323 318 305 301 309 315 315 318 320 317 315 311 306
159 156 152 158 157 143 143 158 225 200 188 348 7 84 120 128 124 129 126 120 127 86 56 356 330 319 324 329 323 318 312 306 302 309 323 329 331 329 323 322 318 317
152 158 161 163 152 140 161 203 227 215 295 10 69 119 125 111 84 66 51 70 72 62 49 329 326 327 318 311 308 306 304 310 313 311 316 322 327 327 322 318 313 314
156 163 167 165 164 169 195 212 216 276 303 85 113 124 119 77 39 32 71 100 92 77 121 294 313 308 303 297 297 306 310 316 318 315 316 316 319 323 324 322 317 316
165 169 174 175 189 199 190 160 53 344 269 143 128 123 94 44 17 35 73 136 177 275 251 286 311 306 307 306 308 324 322 316 310 306 310 315 321 326 329 331 331 333
177 178 176 173 192 194 184 265 341 351 161 153 139 117 62 17 320 345 348 226 211 269 266 293 312 305 294 287 298 313 315 313 307 301 305 313 318 320 323 327 330 335
173 168 167 156 142 150 99 335 350 21 145 160 155 218 310 294 266 315 341 174 179 290 289 303 306 293 283 281 288 301 310 313 311 308 310 312 313 310 310 316 321 327
159 154 159 154 162 223 284 3 18 45 149 184 298 308 296 280 257 274 280 286 304 294 278 288 297 292 292 291 288 294 305 308 308 312 316 316 315 312 310 313 317 321
162 163 167 170 184 225 224 329 343 324 273 296 317 324 322 318 316 312 307 311 316 306 287 289 300 305 306 297 289 294 301 302 303 308 313 314 311 313 316 314 312 315
166 171 177 184 188 230 246 310 330 319 297 308 310 307 311 318 317 313 311 310 311 309 302 303 309 310 310 307 302 301 300 299 302 303 305 306 302 302 308 302 295 301
172 179 184 190 203 287 296 299 310 313 311 311 308 307 307 311 312 311 312 312 312 311 307 306 309 307 308 309 308 308 305 301 303 302 302 303 298 294 291 282 279 288
172 181 193 214 242 272 289 290 296 307 312 311 311 314 316 318 321 322 324 323 320 317 313 310 309 307 307 308 309 310 307 303 304 305 307 305 296 287 278 270 272 284
187 195 211 240 254 263 275 287 299 306 312 317 320 323 326 327 329 329 329 327 322 318 316 314 313 311 309 308 309 307 302 298 300 303 306 305 294 281 271 266 272 285
203 211 225 234 242 261 280 296 309 314 317 324 326 325 326 325 326 326 324 322 319 317 317 316 314 312 309 308 307 304 299 297 298 299 299 298 290 277 267 266 274 287
205 211 219 227 244 267 285 299 314 321 321 321 321 321 323 322 321 321 320 321 320 319 319 319 317 317 318 317 313 309 306 305 305 305 303 297 288 277 273 273 279 287
205 207 213 225 248 266 281 300 314 319 318 318 319 319 320 319 319 319 321 322 323 323 323 323 324 327 329 326 322 321 323 322 318 317 313 304 294 288 284 284 286 288
203 204 213 230 248 260 274 294 305 312 315 318 320 320 320 319 321 323 325 325 325 327 329 332 334 335 333 332 335 337 336 334 329 323 316 306 297 292 289 288 289 290
201 205 213 226 239 251 268 287 301 309 313 314 316 318 319 321 324 327 329 331 332 335 339 344 346 344 339 337 336 335 334 334 331 324 316 307 298 292 290 291 291 292
203 207 215 227 238 247 264 289 300 301 305 311 316 319 321 325 331 334 336 338 340 342 342 342 342 340 336 334 332 329 329 329 326 322 316 310 303 297 294 294 294 295
206 211 224 228 231 246 267 287 292 292 308 319 323 328 331 334 337 336 336 336 335 335 336 335 336 337 336 337 335 332 328 325 321 317 311 307 305 301 298 295 294 295
202 213 225 219 221 257 271 278 289 309 326 327 329 337 338 336 332 325 321 323 325 330 335 336 339 341 340 339 338 336 333 330 325 317 310 306 304 302 300 297 296 296
207 214 208 198 227 262 254 256 340 337 333 327 329 333 329 322 316 312 313 319 325 331 333 334 336 339 338 336 336 336 336 335 331 323 315 309 307 306 306 303 301 300
256 242 214 200 219 224 180 15 340 328 319 318 319 316 309 303 302 307 316 322 326 329 328 326 331 339 342 340 338 337 334 331 328 323 316 312 311 311 310 308 305 304
239 244 231 195 174 153 34 343 319 308 305 313 313 303 296 296 298 305 317 323 324 325 326 327 333 344 349 341 335 332 328 322 317 315 313 311 310 310 308 306 302 300
200 214 201 147 130 16 325 299 296 306 309 313 308 298 297 299 298 300 310 319 323 327 333 339 343 345 341 330 327 331 328 321 316 317 318 317 316 313 310 309 306 304
174 183 166 118 314 306 296 285 296 308 312 312 304 299 301 301 297 297 304 316 328 336 344 348 343 340 335 325 323 329 330 324 317 317 322 324 321 316 312 310 310 309